FENGYUN 1C DEB

Satellite information

Favourite Embed

Satellite Type and Status

DEBRISIN ORBIT

Key statistics

Satellite FENGYUN 1C DEB at a glance.

Uptime

9496

Days in orbit

Revolutions

≈ 14.7

Per day

Orbit

SSO

Sun Synchronous Orbit

Inclination

98.4

Latest

Satellite identification and parameters

Extended collection of information and parameters for FENGYUN 1C DEB.

Object identification

Identified? True

Debris? True

Object name: FENGYUN 1C DEB

International designator: 1999-025AVN

Object number (NORAD): 30828

Object ID (CCSDS): 30828

Country: PEOPLES REPUBLIC OF CHINA (PRC)

Current information (Y/N): Y

RCS size: SMALL

Orbital parameters

Period: 97.861 minutes

Inclination: 98.3689 deg

SMA: 7034.494 km

Apoapsis: 815.984 km

Periapsis: 496.734 km

RAAN: 228.291 deg

Eccentricy: 0.0226917

Argument of periapsis: 151.4692 deg

Mean anomaly: 225.4809 deg

Mean motion: 14.71476936 rev/day

Mean motion (dot): 0.00017463 rev/day2

B* drag term: 0.0018798 1/REarth

Two-line elements (TLE)

Creation date: May 9, 2025, 2:46 a.m.

Reference frame: TEME

Reference center: EARTH

Epoch: May 8, 2025, 1:10 p.m. UTC

TLE line 0: 0 FENGYUN 1C DEB

TLE line 1: 1 30828U 99025AVN 25128.54916321 .00017463 00000-0 18798-2 0 9991

TLE line 2: 2 30828 98.3689 228.2910 0226917 151.4692 225.4809 14.71476936954438

Live tracking on map

Real-time ground track for satellite FENGYUN 1C DEB.

In-orbit conjunctions

A list of the most updated potential collisions computed for object FENGYUN 1C DEB.

Target Orbit TCA Probability of collision Miss distance Type
COSMOS 1862 LEO 2025-04-12 19:23:07 0.000250417 99.0 (m) PAYLOAD
OBJECT D SSO 2025-02-04 11:53:15 0.000113654 890.0 (m) UNKNOWN
COSMOS 2251 DEB LEO 2024-11-14 01:22:25 0.0001409032 971.0 (m) DEBRIS
COSMOS 1275 DEB LEO 2024-11-12 09:20:22 0.0001101144 853.0 (m) DEBRIS

Associated space launch

Chinese polar orbiting meteorological satellite

FENGYUN 1C DEB was lifted into orbit during the mission ‘Long March 4B | Feng Yun 1C’, on board a Long March 4B space rocket.

The launch took place on May 10, 1999, 1:33 a.m. from Launch Complex 7.

For more information about the launch, click the button.

Launch to space Long March 4B | Feng Yun 1C
Long March 4B | Feng Yun 1C

Agency: N/A

Status: Launch Successful

Launch date: May 10, 1999, 1:33 a.m. UTC

Rocket: Long March 4B

Launch pad: Launch Complex 7

Location: Taiyuan Satellite Launch Center, People's Republic of China

...

Latest news about this satellite

There are no fresh news available about this satellite. Check back as we update our databases every day.


Newsletter sign-up

Weekly statistics, charts and insights to help you stay on top of the space industry.